{"data":{"norad_id":62685,"epoch":"2026-09-19T11:27:46.522656Z","epoch_age_seconds":102702,"freshness":"FRESH","line1":"1 62685U 25009CE  26262.47762179  .00003898  00000+0  15234-3 0  9999","line2":"2 62685  97.3887 341.3015 0005369  14.1515 345.9873 15.26446657 93184","mean_motion":15.26446657,"eccentricity":0.0005369,"inclination_deg":97.3887,"raan_deg":341.3015,"arg_perigee_deg":14.1515,"mean_anomaly_deg":345.9873,"bstar":0.00015234,"rev_number":9318,"period_min":94.336739079379,"perigee_km":482.75923827257,"apogee_km":490.13042624405,"semimajor_km":6864.5818322583,"source":"CELESTRAK","updated_at":"2026-09-20T09:00:34.724234Z"}}